Starlink 37261

operational
NORAD ID: 68568 Int'l Des: 2026-070 Owner: SPXS Country: US Constellation: starlink
LEOCIRCULAR

Über Starlink 37261

Beschreibung wird geladen...

Live-Position

3D-Globus wird geladen...

Nächste Überflüge

Höhenverlauf

Altitude vs Time

uPlot chart will show altitude changes over time

Zweizeiliger Elementsatz

1 68568C 26070AB 26093.82409722 .00496780 00000+0 60406-3 0 939
2 68568 53.1622 259.9917 0007979 283.1928 211.8561 16.07053547 14
Epoch: 3. Apr. 2026 • Age: 30 hours

Aktueller Status

Höhe 256.0 km
Geschwindigkeit 7.75 km/s
Subsatellitenpunkt 0.42°N, 148.65°E
Startdatum 2. Apr. 2026
Alter 1 days
Typ internet

Technische Details

Klassifizierung Payload
Masse 575.00 kg
Trockenmasse 530.00 kg
Gesamtmasse 575.00 kg
Länge 0.30 m
Durchmesser 4.10 m
Spannweite 29.00 m
Form Box + pan
Hersteller SPXS
Bus-Typ Starlink V2MO
Phasenstatus In Orbit
Besitzer/Staat SPXS/US

Große Konstellationen

Loading constellations...